User: anonymous   Login
Location: Hamburg
(53.5500°N, 10.0000°E)
Time: 04:16:13
(UTC+02:00)
Language:

Courier 1B - Orbit

View from above orbital plane
View from above orbital plane
View from above satellite
View from above satellite

Ground track
Ground track

The orbit data is extracted from the following two-line orbital elements,

1 00058U 60013A   14295.77733035  .00000100  00000-0  18294-4 0  7963
2 00058 028.3271 129.0284 0165128 255.9799 102.2336 13.46282890660702
Epoch (UTC): 22 October 2014 18:39:21
Eccentricity: 0.0165128
inclination: 28.3271°
perigee height: 963 km
apogee height: 1209 km
right ascension of ascending node: 129.0284°
argument of perigee: 255.9799°
revolutions per day: 13.46282890
mean anomaly at epoch: 102.2336°
orbit number at epoch: 66070

The dashed part of the orbit path shows where the satellite is in the earth's shadow,  

DLR